TimeCDT,TemperatureF,Dew PointF,Humidity,Sea Level PressureIn,VisibilityMPH,Wind Direction,Wind SpeedMPH,Gust SpeedMPH,PrecipitationIn,Events,Conditions,WindDirDegrees,DateUTC
12:15 AM,58.1,22.8,26,30.10,10.0,NE,9.2,16.1,N/A,,Scattered Clouds,50,2013-03-25 05:15:00
12:35 AM,57.6,23.5,27,30.10,10.0,NE,8.1,-,N/A,,Clear,50,2013-03-25 05:35:00
12:55 AM,57.0,24.3,28,30.11,10.0,NE,9.2,-,N/A,,Clear,40,2013-03-25 05:55:00
1:15 AM,57.2,25.9,30,30.11,10.0,NNE,11.5,-,N/A,,Clear,30,2013-03-25 06:15:00
1:55 AM,56.5,27.5,33,30.12,10.0,NE,9.2,-,N/A,,Clear,40,2013-03-25 06:55:00
2:15 AM,56.3,28.2,34,30.12,10.0,NE,13.8,-,N/A,,Clear,40,2013-03-25 07:15:00
2:35 AM,55.8,29.1,36,30.12,10.0,NNE,11.5,16.1,N/A,,Clear,30,2013-03-25 07:35:00
2:55 AM,55.6,29.3,37,30.12,10.0,NNE,12.7,19.6,N/A,,Clear,30,2013-03-25 07:55:00
3:15 AM,55.2,28.9,37,30.14,10.0,NE,11.5,-,N/A,,Clear,40,2013-03-25 08:15:00
3:35 AM,54.5,29.1,38,30.14,10.0,NNE,10.4,-,N/A,,Clear,30,2013-03-25 08:35:00
3:55 AM,54.0,28.6,38,30.15,10.0,NE,10.4,-,N/A,,Clear,40,2013-03-25 08:55:00
4:15 AM,53.6,28.8,39,30.16,10.0,NE,10.4,-,N/A,,Clear,40,2013-03-25 09:15:00
4:35 AM,53.4,28.0,38,30.16,10.0,NE,12.7,18.4,N/A,,Clear,40,2013-03-25 09:35:00
4:55 AM,52.7,28.4,39,30.16,10.0,NE,9.2,-,N/A,,Clear,40,2013-03-25 09:55:00
5:35 AM,51.4,28.8,42,30.18,10.0,NE,8.1,-,N/A,,Clear,40,2013-03-25 10:35:00
5:55 AM,51.1,28.9,43,30.18,10.0,NE,10.4,-,N/A,,Clear,40,2013-03-25 10:55:00
6:15 AM,51.3,29.3,43,30.18,10.0,NE,9.2,-,N/A,,Clear,40,2013-03-25 11:15:00
6:35 AM,51.8,29.3,42,30.19,10.0,NE,9.2,-,N/A,,Mostly Cloudy,40,2013-03-25 11:35:00
6:55 AM,51.6,29.7,43,30.20,10.0,NNE,10.4,-,N/A,,Mostly Cloudy,30,2013-03-25 11:55:00
7:15 AM,51.3,30.2,44,30.21,10.0,NNE,10.4,-,N/A,,Mostly Cloudy,30,2013-03-25 12:15:00
7:35 AM,51.1,30.6,45,30.22,10.0,NE,11.5,-,N/A,,Scattered Clouds,40,2013-03-25 12:35:00
7:55 AM,51.1,30.7,46,30.23,10.0,NNE,9.2,-,N/A,,Clear,30,2013-03-25 12:55:00
8:15 AM,51.8,30.9,45,30.25,10.0,NNE,10.4,-,N/A,,Mostly Cloudy,30,2013-03-25 13:15:00
8:55 AM,52.9,31.6,44,30.27,10.0,NNE,11.5,17.3,N/A,,Overcast,20,2013-03-25 13:55:00
9:15 AM,54.1,31.3,42,30.28,10.0,NNE,13.8,21.9,N/A,,Overcast,30,2013-03-25 14:15:00
9:35 AM,55.8,29.7,37,30.29,10.0,NE,17.3,23.0,N/A,,Mostly Cloudy,40,2013-03-25 14:35:00
9:55 AM,57.2,30.0,36,30.30,10.0,NNE,16.1,-,N/A,,Scattered Clouds,30,2013-03-25 14:55:00
10:15 AM,58.3,31.1,36,30.31,10.0,NNE,16.1,23.0,N/A,,Clear,30,2013-03-25 15:15:00
10:35 AM,59.5,32.0,35,30.32,10.0,ENE,13.8,20.7,N/A,,Clear,60,2013-03-25 15:35:00
10:55 AM,60.8,32.4,34,30.32,10.0,NE,12.7,23.0,N/A,,Clear,50,2013-03-25 15:55:00
11:15 AM,61.2,32.9,35,30.33,10.0,NE,12.7,21.9,N/A,,Clear,40,2013-03-25 16:15:00
11:35 AM,62.6,34.9,36,30.32,10.0,NE,12.7,21.9,N/A,,Clear,50,2013-03-25 16:35:00
11:55 AM,63.0,35.2,36,30.32,10.0,NE,11.5,21.9,N/A,,Clear,40,2013-03-25 16:55:00
12:15 PM,64.9,35.1,33,30.31,10.0,ENE,11.5,20.7,N/A,,Clear,70,2013-03-25 17:15:00
12:35 PM,63.9,33.8,33,30.31,10.0,NE,15.0,19.6,N/A,,Clear,50,2013-03-25 17:35:00
12:55 PM,64.8,34.5,33,30.30,10.0,NE,12.7,23.0,N/A,,Clear,50,2013-03-25 17:55:00
1:15 PM,65.5,34.3,31,30.29,10.0,NE,9.2,19.6,N/A,,Clear,50,2013-03-25 18:15:00
1:35 PM,66.2,33.8,30,30.28,10.0,NE,10.4,20.7,N/A,,Clear,40,2013-03-25 18:35:00
1:55 PM,66.7,32.5,28,30.27,10.0,North,10.4,19.6,N/A,,Clear,10,2013-03-25 18:55:00
2:15 PM,67.3,31.5,26,30.27,10.0,NE,9.2,18.4,N/A,,Clear,50,2013-03-25 19:15:00
2:35 PM,66.9,30.0,25,30.26,10.0,ENE,9.2,17.3,N/A,,Clear,70,2013-03-25 19:35:00
2:55 PM,67.6,30.2,25,30.25,10.0,East,13.8,17.3,N/A,,Clear,80,2013-03-25 19:55:00
3:15 PM,68.0,28.4,23,30.24,10.0,East,11.5,-,N/A,,Clear,100,2013-03-25 20:15:00
3:35 PM,67.8,28.2,23,30.23,10.0,East,13.8,17.3,N/A,,Clear,80,2013-03-25 20:35:00
3:55 PM,68.2,26.8,21,30.22,10.0,East,5.8,19.6,N/A,,Clear,90,2013-03-25 20:55:00
4:15 PM,68.5,23.4,18,30.22,10.0,ENE,12.7,21.9,N/A,,Clear,60,2013-03-25 21:15:00
4:35 PM,68.5,23.0,18,30.22,10.0,East,12.7,-,N/A,,Clear,100,2013-03-25 21:35:00
4:55 PM,67.8,21.2,17,30.22,10.0,East,16.1,19.6,N/A,,Clear,80,2013-03-25 21:55:00
5:15 PM,67.3,22.6,18,30.21,10.0,East,9.2,-,N/A,,Clear,100,2013-03-25 22:15:00
5:35 PM,67.1,22.6,19,30.21,10.0,East,15.0,20.7,N/A,,Clear,90,2013-03-25 22:35:00
5:55 PM,66.6,23.0,19,30.22,10.0,East,12.7,18.4,N/A,,Clear,90,2013-03-25 22:55:00
6:15 PM,66.0,23.5,20,30.22,10.0,East,12.7,17.3,N/A,,Clear,100,2013-03-25 23:15:00
6:35 PM,65.3,24.3,21,30.22,10.0,ENE,13.8,18.4,N/A,,Clear,60,2013-03-25 23:35:00
6:55 PM,63.9,23.9,22,30.23,10.0,East,12.7,-,N/A,,Clear,100,2013-03-25 23:55:00
7:15 PM,63.0,25.5,24,30.24,10.0,East,12.7,-,N/A,,Clear,80,2013-03-26 00:15:00
7:35 PM,61.7,26.8,27,30.25,10.0,East,11.5,-,N/A,,Clear,90,2013-03-26 00:35:00
7:55 PM,60.3,29.3,31,30.26,10.0,East,8.1,-,N/A,,Clear,100,2013-03-26 00:55:00
8:15 PM,59.4,29.1,32,30.27,10.0,East,8.1,-,N/A,,Clear,90,2013-03-26 01:15:00
8:35 PM,58.8,29.1,32,30.28,10.0,East,9.2,-,N/A,,Clear,100,2013-03-26 01:35:00
8:55 PM,58.1,28.9,33,30.28,10.0,East,5.8,-,N/A,,Clear,100,2013-03-26 01:55:00
9:15 PM,56.5,29.1,35,30.29,10.0,East,4.6,-,N/A,,Clear,100,2013-03-26 02:15:00
9:35 PM,54.9,28.9,37,30.29,10.0,East,4.6,-,N/A,,Clear,90,2013-03-26 02:35:00
9:55 PM,54.5,29.5,38,30.30,10.0,East,3.5,-,N/A,,Clear,100,2013-03-26 02:55:00
10:15 PM,54.0,30.2,40,30.32,10.0,Calm,Calm,-,N/A,,Clear,0,2013-03-26 03:15:00
10:35 PM,53.2,30.6,42,30.32,10.0,Calm,Calm,-,N/A,,Clear,0,2013-03-26 03:35:00
10:55 PM,52.0,30.7,44,30.32,10.0,East,3.5,-,N/A,,Clear,90,2013-03-26 03:55:00
11:15 PM,52.9,30.9,43,30.33,10.0,Calm,Calm,-,N/A,,Clear,0,2013-03-26 04:15:00
11:35 PM,51.6,30.4,44,30.33,10.0,Calm,Calm,-,N/A,,Clear,0,2013-03-26 04:35:00
11:55 PM,50.9,31.1,47,30.34,10.0,Calm,Calm,-,N/A,,Clear,0,2013-03-26 04:55:00